Location: *
(51.0333°S, 178.4667°E)
Time: 11:22:55
(UTC+00:00)

ALOS 2 - Pass Details

Date: 15 November 2019
Orbit: 630 x 632 km, 97.9° (Epoch: 15 December)

Event Time Altitude Azimuth Distance (km) Brightness Sun altitude
Rises 11:49:03 0° 159° (SSE) 2,972 7.3 -20.5°
Reaches altitude 10° 11:51:29 10° 148° (SSE) 2,055 6.1 -20.5°
Maximum altitude 11:55:30 32° 85° (E) 1,114 3.8 -20.5°
Enters shadow 11:56:29 29° 59° (ENE) 1,190 3.7 -20.5°
